�������C�����ː����j�^�v���󋵏��
Date,Time,Cs137(Bq/L),Cs134(Bq/L),�S��(Bq/L)
2017/03/03,00:00,0.25,ND,ND
2017/03/03,00:10,0.25,ND,ND
2017/03/03,00:20,0.25,ND,ND
2017/03/03,00:30,0.24,ND,8.8
2017/03/03,00:40,0.25,ND,12
2017/03/03,00:50,0.26,ND,11
2017/03/03,01:00,0.28,ND,11
2017/03/03,01:10,0.28,ND,12
2017/03/03,01:20,0.28,ND,13
2017/03/03,01:30,0.26,ND,11
2017/03/03,01:40,0.27,ND,10
2017/03/03,01:50,0.27,ND,12
2017/03/03,02:00,0.27,ND,11
2017/03/03,02:10,0.27,ND,13
2017/03/03,02:20,0.26,ND,14
2017/03/03,02:30,0.26,ND,17
2017/03/03,02:40,0.25,ND,17
2017/03/03,02:50,0.25,ND,15
2017/03/03,03:00,0.23,ND,10
2017/03/03,03:10,0.24,ND,12
2017/03/03,03:20,0.24,ND,10
2017/03/03,03:30,0.25,ND,ND
2017/03/03,03:40,0.26,ND,ND
2017/03/03,03:50,0.26,ND,ND
2017/03/03,04:00,0.27,ND,12
2017/03/03,04:10,0.26,ND,ND
2017/03/03,04:20,0.27,ND,ND
2017/03/03,04:30,0.26,ND,ND
2017/03/03,04:40,0.25,ND,ND
2017/03/03,04:50,0.26,ND,ND
2017/03/03,05:00,0.26,ND,11
2017/03/03,05:10,0.27,ND,13
2017/03/03,05:20,0.26,ND,13
2017/03/03,05:30,0.27,ND,14
2017/03/03,05:40,0.29,ND,14
2017/03/03,05:50,0.30,ND,12
2017/03/03,06:00,0.30,ND,9.9
2017/03/03,06:10,0.30,ND,12
2017/03/03,06:20,0.30,ND,13
2017/03/03,06:30,0.30,ND,12
2017/03/03,06:40,0.27,ND,10
2017/03/03,06:50,0.26,ND,11
2017/03/03,07:00,0.26,ND,10
2017/03/03,07:10,0.25,ND,9.6
2017/03/03,07:20,0.25,ND,ND
2017/03/03,07:30,0.23,ND,ND
2017/03/03,07:40,0.27,ND,9.2
2017/03/03,07:50,0.27,ND,ND
2017/03/03,08:00,0.31,ND,9.6
2017/03/03,08:10,0.32,ND,ND
2017/03/03,08:20,0.33,ND,9.5
2017/03/03,08:30,0.35,ND,9.5
2017/03/03,08:40,0.34,ND,12
2017/03/03,08:50,0.36,ND,12
2017/03/03,09:00,0.36,ND,11
2017/03/03,09:10,0.38,ND,15
2017/03/03,09:20,0.38,ND,15
2017/03/03,09:30,0.41,ND,16
2017/03/03,09:40,0.40,ND,12
2017/03/03,09:50,0.42,ND,14
2017/03/03,10:00,0.39,ND,15
2017/03/03,10:10,0.36,ND,14
2017/03/03,10:20,0.35,ND,14
2017/03/03,10:30,0.34,ND,12
2017/03/03,10:40,0.34,ND,13
2017/03/03,10:50,0.33,ND,11
2017/03/03,11:00,0.32,ND,12
2017/03/03,11:10,0.32,ND,9.7
2017/03/03,11:20,0.33,ND,ND
2017/03/03,11:30,0.32,ND,9.9
2017/03/03,11:40,0.32,ND,10
2017/03/03,11:50,0.30,ND,12
2017/03/03,12:00,0.30,ND,ND
2017/03/03,12:10,0.30,ND,8.8
2017/03/03,12:20,0.31,ND,9.6
2017/03/03,12:30,0.30,ND,8.8
2017/03/03,12:40,0.31,ND,9.0
2017/03/03,12:50,0.32,ND,ND
2017/03/03,13:00,0.32,ND,12
2017/03/03,13:10,0.34,ND,13
2017/03/03,13:20,0.33,ND,15
2017/03/03,13:30,0.33,ND,16
2017/03/03,13:40,0.32,ND,14
2017/03/03,13:50,0.32,ND,12
2017/03/03,14:00,0.33,ND,10
2017/03/03,14:10,0.31,ND,11
2017/03/03,14:20,0.33,ND,9.2
2017/03/03,14:30,0.33,ND,8.8
2017/03/03,14:40,0.34,ND,11
2017/03/03,14:50,0.37,ND,12
2017/03/03,15:00,0.39,ND,12
2017/03/03,15:10,0.39,ND,10
2017/03/03,15:20,0.39,ND,ND
2017/03/03,15:30,0.35,0.029,12
2017/03/03,15:40,0.38,ND,12
2017/03/03,15:50,0.34,0.026,14
2017/03/03,16:00,0.25,0.034,16
2017/03/03,16:10,0.27,0.025,16
2017/03/03,16:20,0.37,ND,16
2017/03/03,16:30,0.40,ND,11
2017/03/03,16:40,0.40,ND,13
2017/03/03,16:50,0.38,ND,13
2017/03/03,17:00,0.38,ND,9.7
2017/03/03,17:10,0.37,ND,11
2017/03/03,17:20,0.36,ND,10
2017/03/03,17:30,0.33,ND,10
2017/03/03,17:40,0.26,ND,ND
2017/03/03,17:50,0.32,ND,ND
2017/03/03,18:00,0.32,ND,9.6
2017/03/03,18:10,0.33,ND,ND
2017/03/03,18:20,0.35,ND,11
2017/03/03,18:30,0.35,ND,13
2017/03/03,18:40,0.36,ND,13
2017/03/03,18:50,0.38,ND,14
2017/03/03,19:00,0.36,ND,11
2017/03/03,19:10,0.37,ND,13
2017/03/03,19:20,0.34,ND,12
2017/03/03,19:30,0.33,ND,ND
2017/03/03,19:40,0.33,ND,ND
2017/03/03,19:50,0.31,ND,ND
2017/03/03,20:00,0.32,ND,ND
2017/03/03,20:10,0.32,ND,ND
2017/03/03,20:20,0.32,ND,ND
2017/03/03,20:30,0.33,ND,ND
2017/03/03,20:40,0.34,ND,ND
2017/03/03,20:50,0.34,ND,ND
2017/03/03,21:00,0.34,ND,ND
2017/03/03,21:10,0.35,ND,ND
2017/03/03,21:20,0.36,ND,ND
2017/03/03,21:30,0.36,ND,ND
2017/03/03,21:40,0.35,ND,ND
2017/03/03,21:50,0.34,ND,ND
2017/03/03,22:00,0.34,ND,8.8
2017/03/03,22:10,0.34,ND,9.3
2017/03/03,22:20,0.33,ND,9.9
2017/03/03,22:30,0.34,ND,ND
2017/03/03,22:40,0.33,ND,ND
2017/03/03,22:50,0.31,ND,ND
2017/03/03,23:00,0.32,ND,ND
2017/03/03,23:10,0.33,ND,ND
2017/03/03,23:20,0.33,ND,ND
2017/03/03,23:30,0.33,ND,ND
2017/03/03,23:40,0.33,ND,ND
2017/03/03,23:50,0.34,ND,ND
